Погода в Шукавке

Россия / Воронежская область     51°52′44″N   40°11′02″E
темп.,
°C
ветер,
м/с
пор.,
м/с
влажн.,
%
обл.,
%
осадки,
мм/ч
давл.,
гПа
погр.,
м
22 апреля, чт
чт2200:00+6ю489216 0.1 1016160
03:00+5зюз499313 0.1 1018260
06:00+4юз35925 0.0 1019133
09:00+9юз34695 0.0 1020573
12:00+13юз465562 0.1 10201700
15:00+15юз454570 0.1 10202060
18:00+14юз3452100 0.0 102076
21:00+12ююз3458100 0.0 102155
23 апреля, пт
пт2300:00+11ю3663100 0.0 1021106
03:00+10ю3568100 0.0 102195
06:00+9ююв367599 0.0 1020119
09:00+14ю465664 0.0 1020503
12:00+16ю5745100 0.0 10192036
15:00+16ю564778 0.1 10181663
18:00+15ю47549 0.0 1016332
21:00+10ююв487060 0.0 1016144
24 апреля, сб
сб2400:00+10ююв51173100 0.0 1014243
03:00+10юз51377100 0.1 1012511
06:00+9ююз41086100 0.1 1011589
09:00+5зсз7993100 1.6 1011508
12:00+6зсз5789100 0.9 1012656
15:00+10з575899 1.7 10111565
18:00+8з5770100 1.3 1011889
21:00+5зюз358332 1.7 1013110
25 апреля, вс
вс2500:00+4зюз3883100 0.0 1013168
03:00+3з37855 0.0 1014127
06:00+2з49885 0.0 1015274
09:00+6з69605 0.0 10161381
12:00+8зюз8105060 0.6 10162142
15:00+10зюз81239100 0.6 10162802
18:00+7з6116592 0.3 10161357
21:00+4юз34775 0.3 101760
26 апреля, пн
пн2600:00+4юз4783100 0.3 1017396
03:00+4зюз3587100 1.0 1016520
06:00+4юз258892 0.0 1016318
09:00+6з566999 0.6 10151120
12:00+9з6844100 0.6 10152421
15:00+9з674098 0.6 10142290
18:00+8зюз6853100 0.3 10141337
21:00+5юз587192 0.9 1015543